Location: Arbon
(43.0005°N, 0.7472°E)
Time: 10:40:18
(UTC+00:00)

SR - Pass Details

Date: 30 November 2020
Orbit: 575 x 880 km, 66.7° (Epoch: 21 January)

Event Time Altitude Azimuth Distance (km) Brightness Sun altitude
Rises 18:41:43 0° 235° (SW) 2,807 ? -24.6°
Reaches altitude 10° 18:44:03 10° 245° (WSW) 1,935 ? -25.1°
Maximum altitude 18:48:00 33° 310° (NW) 1,045 ? -25.8°
Enters shadow 18:49:24 27° 345° (NNW) 1,212 ? -26.0°
Drops below altitude 10° 18:52:13 10° 16° (NNE) 2,076 - -26.5°
Sets 18:54:49 0° 25° (NNE) 3,046 - -27.0°
